Tracking 28052 objects as of 22-Sep-2023
HD Live streaming from Space Station
objects crossing your sky now

MARCOPOLO 2 R/B(PAM-D)

Track MARCOPOLO 2 R/B(PAM-D) now!


NORAD ID: 20764
Int'l Code: 1990-074C
Perigee: 457.6 km
Apogee: 37,045.9 km
Inclination: 20.8 °
Period: 660.5 minutes
Semi major axis: 25122 km
RCS: 3.0298 m2 (large)
Launch date: August 18, 1990
Source: United States (US)
Launch site: AIR FORCE EASTERN TEST RANGE (AFETR)

Note: This is a ROCKET BODY
Your satellite tracking list
Your tracking list is empty




NASA's NSSDC Master Catalog

Two Line Element Set (TLE):
1 20764U 90074C   23264.35702951  .00000108  00000-0  25630-3 0  9996
2 20764  20.7877 240.2493 7281907 191.4477 131.9148  2.18023330261944
Source of the keplerian elements: AFSPC